Sierra Vista Municipal Libby Army Air Field Fort Huachuca Sierra Vista US
ICAO: KFHU
IATA: FHU
Category: Medium
Scheduled Services: Yes

Elevation: 4719 ft
TransAlt. 18000 ft.

Airport Communications:
ASOS:119.675
ATIS:134.75
CTAF:124.95
LIBBY GCA:127.05
GND:121.7
LIBBY OPS:122.95
LIBBY TWR:124.95
UNICOM:122.95

KFHU Zoom In..

If Map Doesn't Load, Click Here

Runways:

(A) RW 03 length 4285 ft width 75 ft
---- / hdg 24

(B) RW 08 length 12001 ft width 150 ft
---- / hdg 77

(C) RW 12 length 5366 ft width 100 ft
---- / hdg 114

(D) RW 21 length 4285 ft width 75 ft
---- / hdg 204

(E) RW 26 length 12001 ft width 150 ft
ILS 109.90 / hdg 257

(F) RW 30 length 5366 ft width 100 ft
---- / hdg 294

Location; KFHU
Day. 22 / Time. 04.58 Zulu
* Altimeter: 30.20
* Temperature: 22° c. 71.6°f.
* Wind from: 110° Speed 04 kn.
Dewpoint: 07° c.
Visibility: 10 Statute Miles.
Clouds: Broken 1000 ft.

KFHU 220458Z AUTO 11004KT 10SM BKN100 22/07 A3020 RMK AO2A SLP154 T02240070


Wind From 110°
Speed 04 kn.

 
 
jpsmedia.com for Web Design worldairports.se 2018   terms of use